Weather History for Palm Springs, CA

Change the Weather History Date:

Thursday, January 22, 2015

  Actual Average Record
Temperature  
Mean Temperature 66 °F 58 °F  
Max Temperature 76 °F 70 °F 89 °F (1948)
Min Temperature 55 °F 46 °F 19 °F (1937)
Degree Days  
Heating Degree Days 0 7  
Month to date heating degree days 99 178  
Since 1 July heating degree days 347 564  
Cooling Degree Days 1 0  
Month to date cooling degree days 8 0  
Year to date cooling degree days 8 0  
Growing Degree Days 14 (Base 50)    
Moisture  
Dew Point 10 °F    
Average Humidity 12    
Maximum Humidity 17    
Minimum Humidity 6    
Precipitation  
Precipitation 0.00 in 0.03 in 1.93 in (1943)
Month to date precipitation T 0.86  
Year to date precipitation T 0.86  
Snow  
Snow 0.00 in - - ()
Month to date snowfall 0.0  
Year to date snowfall 0.0  
Since 1 July snowfall 0.0  
Snow Depth 0.00 in    
Sea Level Pressure  
Sea Level Pressure 30.25 in    
Wind  
Wind Speed 6 mph (WNW)    
Max Wind Speed 15 mph    
Max Gust Speed 21 mph    
Visibility 10 miles    
Events      
T = Trace of Precipitation, MM = Missing Value Source: NWS Daily Summary

Daily Weather History Graph

Daily Weather History Graph

Search for Another Location

Airport:

Trip Planner

Search our weather history database for the weather conditions in past years. The results will help you decide how hot, cold, wet, or windy it might be!

Date:

Astronomy

Jan. 22, 2015 Rise Set
Actual Time 6:48 AM PST 5:06 PM PST
Civil Twilight 6:21 AM PST 5:33 PM PST
Nautical Twilight 5:51 AM PST 6:04 PM PST
Astronomical Twilight 5:21 AM PST 6:33 PM PST
Moon 8:12 AM PST (1/22) 8:01 PM PST (1/22)
Length of Visible Light 11h 11m
Length of Day
10h 18m
Waxing Crescent, 8% of the Moon is Illuminated
Jan 22
Waxing Crescent
Jan 26
First Quarter
Feb 3
Full
Feb 11
Last Quarter
Feb 18
New

Hourly Weather History & Observations

Time (PST) Temp. Dew Point Humidity Pressure Visibility Wind Dir Wind Speed Gust Speed Precip Events Conditions
12:53 AM 64.9 °F 12.0 °F 13% 30.15 in 10.0 mi WNW 6.9 mph - N/A   Clear
1:53 AM 68.0 °F 6.1 °F 9% 30.16 in 10.0 mi NW 10.4 mph - N/A   Clear
2:53 AM 61.0 °F 10.9 °F 14% 30.16 in 10.0 mi West 5.8 mph - N/A   Clear
3:53 AM 60.1 °F 10.0 °F 14% 30.18 in 10.0 mi West 5.8 mph - N/A   Clear
4:53 AM 57.0 °F 10.9 °F 16% 30.20 in 10.0 mi WNW 5.8 mph - N/A   Clear
5:53 AM 60.1 °F 10.9 °F 14% 30.22 in 10.0 mi West 5.8 mph - N/A   Clear
6:53 AM 57.9 °F 10.0 °F 15% 30.24 in 10.0 mi WSW 6.9 mph - N/A   Scattered Clouds
7:53 AM 57.9 °F 12.9 °F 17% 30.25 in 10.0 mi WNW 3.5 mph - N/A   Clear
8:53 AM 68.0 °F 9.0 °F 10% 30.27 in 10.0 mi NW 5.8 mph - N/A   Clear
9:53 AM 70.0 °F 6.1 °F 8% 30.28 in 10.0 mi Calm Calm - N/A   Clear
10:53 AM 71.1 °F 5.0 °F 8% 30.29 in 10.0 mi Calm Calm - N/A   Clear
11:53 AM 73.0 °F 3.9 °F 7% 30.27 in 10.0 mi Variable 3.5 mph - N/A   Clear
12:53 PM 73.0 °F 3.9 °F 7% 30.24 in 10.0 mi Variable 3.5 mph - N/A   Clear
1:53 PM 73.0 °F 3.9 °F 7% 30.22 in 10.0 mi Variable 6.9 mph - N/A   Scattered Clouds
2:53 PM 73.0 °F 8.1 °F 8% 30.23 in 10.0 mi ESE 8.1 mph - N/A   Clear
3:53 PM 72.0 °F 10.0 °F 9% 30.24 in 10.0 mi East 6.9 mph - N/A   Scattered Clouds
4:53 PM 69.1 °F 12.9 °F 11% 30.25 in 10.0 mi Variable 5.8 mph - N/A   Scattered Clouds
5:53 PM 64.9 °F 10.9 °F 12% 30.28 in 10.0 mi East 5.8 mph - N/A   Clear
6:53 PM 64.0 °F 10.0 °F 12% 30.30 in 10.0 mi Calm Calm - N/A   Clear
7:53 PM 62.1 °F 17.1 °F 18% 30.31 in 10.0 mi Calm Calm - N/A   Clear
8:53 PM 57.9 °F 15.1 °F 19% 30.31 in 10.0 mi NW 5.8 mph - N/A   Clear
9:53 PM 59.0 °F 12.9 °F 16% 30.33 in 10.0 mi NW 5.8 mph - N/A   Clear
10:53 PM 55.9 °F 16.0 °F 21% 30.33 in 10.0 mi NNW 3.5 mph - N/A   Clear
11:53 PM 55.9 °F 15.1 °F 20% 30.32 in 10.0 mi North 5.8 mph - N/A   Clear